Terminal Aerodrome Forecast
Issued by NWS Grand Junction, CO

Home | Current Version | Previous Version | Text Only | Print | Product List | Glossary On
Versions: 1 2 3 4 5 6 7 8 9 10 11 12 13 14 15 16 17 18 19 20 21 22 23 24 25 26 27 28 29 30 31 32 33 34 35
000
FTUS45 KGJT 050532
TAFGJT
TAF
KGJT 050532Z 0506/0606 11008KT P6SM VCSH BKN100
     FM051200 14006KT P6SM SCT120 BKN150
     FM051800 20006KT P6SM VCSH BKN110
     FM052100 16008KT P6SM -SHRA SCT080 BKN100
     FM060200 12005KT P6SM VCSH FEW080 BKN100=

USA.gov is the U.S. government's official web portal to all federal, state and local government web resources and services.